GW5771 Weather Reports


time (UTC)temp
C
wind
direction
speed
KPH
gust
KPH
rain 1hr
cm
rain 24hr
cm
rain mn
cm
humidity
%
barometer
mb
20260506212105 15 301 3.2 9.7 0.00 0.00 0.00 95 1007.1
20260506211606 15 201 3.2 9.7 0.00 0.00 0.00 94 1007.1
20260506211105 15 255 4.8 9.7 0.00 0.00 0.00 94 1007.2
20260506210606 15 185 4.8 12.9 0.00 0.00 0.00 94 1007.2
20260506210106 15 190 3.2 11.3 0.00 0.00 0.00 94 1007.2
20260506205106 15 209 1.6 11.3 0.00 0.00 0.00 94 1007.4
20260506204606 15 186 4.8 16.1 0.00 0.00 0.00 93 1007.4
20260506204106 15 196 8.0 12.9 0.00 0.00 0.00 94 1007.4
20260506203106 15 211 3.2 11.3 0.00 0.00 0.00 94 1007.5
20260506202605 15 253 3.2 12.9 0.00 0.00 0.00 94 1007.5
20260506202105 15 165 4.8 11.3 0.00 0.00 0.00 94 1007.6
20260506201605 15 132 6.4 20.9 0.00 0.00 0.00 94 1007.6
20260506201106 15 214 3.2 12.9 0.00 0.00 0.00 94 1007.6
20260506200607 15 194 4.8 12.9 0.00 0.00 0.00 94 1007.6
20260506200106 15 212 1.6 9.7 0.00 0.00 0.00 94 1007.6
20260506195105 15 168 6.4 9.7 0.00 0.00 0.00 94 1007.8
20260506194606 15 201 3.2 8.0 0.00 0.00 0.00 94 1007.8
20260506194106 15 219 4.8 12.9 0.00 0.00 0.00 93 1007.8
20260506193106 15 190 6.4 11.3 0.00 0.00 0.00 93 1007.9
20260506192606 15 239 4.8 11.3 0.00 0.00 0.00 93 1007.9
20260506192106 15 210 4.8 9.7 0.00 0.00 0.00 93 1008.0
20260506191606 15 211 3.2 12.9 0.00 0.00 0.00 93 1007.9
20260506190607 15 175 4.8 12.9 0.00 0.00 0.00 92 1007.9
20260506190105 15 224 4.8 12.9 0.00 0.00 0.00 92 1008.1
20260506185606 16 180 3.2 11.3 0.00 0.00 0.00 93 1007.9
20260506185106 16 181 3.2 8.0 0.00 0.00 0.00 93 1007.8
20260506184607 16 195 4.8 11.3 0.00 0.00 0.00 92 1007.9
20260506184106 16 190 3.2 9.7 0.00 0.00 0.00 92 1008.0
20260506183605 16 187 3.2 11.3 0.00 0.00 0.00 90 1008.1
20260506183105 16 197 4.8 11.3 0.00 0.00 0.00 88 1008.3
20260506182605 16 165 4.8 9.7 0.00 0.00 0.00 87 1008.4
20260506182105 17 186 3.2 12.9 0.00 0.00 0.00 87 1008.4
20260506181606 17 184 4.8 12.9 0.00 0.00 0.00 86 1008.5
20260506181105 17 221 4.8 12.9 0.00 0.00 0.00 84 1008.7
20260506180605 17 244 4.8 9.7 0.00 0.00 0.00 83 1008.6
20260506180107 17 212 3.2 8.0 0.00 0.00 0.00 81 1008.6
20260506175605 18 241 4.8 11.3 0.00 0.00 0.00 79 1008.7
20260506175105 18 219 4.8 11.3 0.00 0.00 0.00 77 1008.9
20260506174105 19 185 4.8 16.1 0.00 0.00 0.00 73 1009.0
20260506173606 20 230 6.4 14.5 0.00 0.00 0.00 71 1009.0
20260506172606 20 196 8.0 24.1 0.00 0.00 0.00 64 1008.5
20260506172106 20 177 8.0 20.9 0.00 0.00 0.00 64 1008.6
20260506171605 21 208 4.8 19.3 0.00 0.00 0.00 63 1008.3
20260506171106 21 201 8.0 20.9 0.00 0.00 0.00 62 1008.3
20260506170605 21 214 6.4 22.5 0.00 0.00 0.00 62 1008.2
20260506170106 21 204 4.8 12.9 0.00 0.00 0.00 60 1008.2
20260506165606 21 227 3.2 9.7 0.00 0.00 0.00 61 1008.1
20260506165107 21 254 3.2 19.3 0.00 0.00 0.00 61 1008.1
20260506164105 21 220 6.4 16.1 0.00 0.00 0.00 60 1008.1
20260506163606 21 262 4.8 19.3 0.00 0.00 0.00 59 1007.9
20260506163105 21 205 4.8 16.1 0.00 0.00 0.00 60 1008.3
20260506162606 21 185 3.2 14.5 0.00 0.00 0.00 61 1008.1
20260506162106 21 218 4.8 12.9 0.00 0.00 0.00 60 1008.4
20260506161106 21 211 4.8 14.5 0.00 0.00 0.00 60 1008.5
20260506160606 21 246 9.7 22.5 0.00 0.00 0.00 60 1008.8
20260506160105 21 234 4.8 16.1 0.00 0.00 0.00 62 1008.7
20260506155606 21 183 4.8 19.3 0.00 0.00 0.00 62 1008.8
20260506155107 21 223 3.2 16.1 0.00 0.00 0.00 62 1008.9
20260506154106 20 176 4.8 11.3 0.00 0.00 0.00 63 1008.8
20260506153607 20 200 3.2 11.3 0.00 0.00 0.00 64 1008.9
20260506153106 20 208 4.8 12.9 0.00 0.00 0.00 64 1009.0
20260506152605 20 227 8.0 16.1 0.00 0.00 0.00 64 1009.1
20260506152105 20 222 6.4 12.9 0.00 0.00 0.00 64 1009.3
20260506151605 20 205 3.2 14.5 0.00 0.00 0.00 64 1009.3
20260506151105 20 197 4.8 16.1 0.00 0.00 0.00 64 1009.3
20260506150605 20 230 4.8 12.9 0.00 0.00 0.00 64 1009.4
20260506150106 20 214 8.0 14.5 0.00 0.00 0.00 64 1009.4
20260506145606 20 211 3.2 11.3 0.00 0.00 0.00 65 1009.3
20260506145105 20 210 6.4 14.5 0.00 0.00 0.00 65 1009.4
20260506144605 20 207 4.8 14.5 0.00 0.00 0.00 66 1009.5
20260506144106 20 201 6.4 14.5 0.00 0.00 0.00 67 1009.4
20260506143605 20 211 8.0 14.5 0.00 0.00 0.00 67 1009.4
20260506143105 20 210 4.8 19.3 0.00 0.00 0.00 67 1009.5
20260506142605 19 200 3.2 4.8 0.00 0.00 0.00 70 1009.5
20260506142106 19 191 4.8 12.9 0.00 0.00 0.00 69 1009.4
20260506141605 19 228 8.0 14.5 0.00 0.00 0.00 70 1009.4
20260506141105 18 212 6.4 12.9 0.00 0.00 0.00 71 1009.4
20260506140606 18 202 3.2 11.3 0.00 0.00 0.00 72 1009.4
20260506135605 18 237 4.8 12.9 0.00 0.00 0.00 72 1009.3
20260506135106 18 188 3.2 14.5 0.00 0.00 0.00 72 1009.3
20260506134105 18 184 4.8 19.3 0.00 0.00 0.00 74 1009.4
20260506133607 18 213 3.2 14.5 0.00 0.00 0.00 74 1009.5
20260506133106 18 195 3.2 14.5 0.00 0.00 0.00 75 1009.3
20260506132605 18 175 4.8 16.1 0.00 0.00 0.00 75 1009.4
20260506132106 17 215 4.8 11.3 0.00 0.00 0.00 75 1009.4
20260506130606 17 200 4.8 11.3 0.00 0.00 0.00 78 1009.9
20260506125605 17 197 4.8 9.7 0.00 0.00 0.00 79 1010.3
20260506125106 17 189 6.4 14.5 0.00 0.00 0.00 79 1010.2
20260506124605 17 219 3.2 14.5 0.00 0.00 0.00 79 1010.2
20260506124106 16 182 4.8 11.3 0.00 0.00 0.00 79 1010.0
20260506123605 16 247 3.2 11.3 0.00 0.00 0.00 79 1010.0
20260506123105 16 232 1.6 12.9 0.00 0.00 0.00 80 1010.0
20260506122606 16 217 3.2 12.9 0.00 0.00 0.00 80 1009.8
20260506121605 16 192 3.2 14.5 0.00 0.00 0.00 82 1010.0
20260506121105 16 189 4.8 14.5 0.00 0.00 0.00 82 1010.3
20260506120606 16 245 3.2 11.3 0.00 0.00 0.00 82 1010.3
20260506120106 15 163 3.2 12.9 0.00 0.00 0.00 83 1010.1
20260506115605 15 223 6.4 14.5 0.00 0.00 0.00 83 1010.0
20260506115105 15 220 4.8 12.9 0.00 0.00 0.00 83 1010.1
20260506114106 15 202 4.8 9.7 0.00 0.00 0.00 84 1010.1
20260506113606 15 166 3.2 8.0 0.00 0.00 0.00 85 1010.4
20260506113106 15 252 1.6 8.0 0.00 0.00 0.00 86 1010.5
20260506112105 14 163 3.2 8.0 0.00 0.00 0.00 86 1010.6
20260506111605 14 191 3.2 8.0 0.00 0.00 0.00 86 1010.7
20260506111105 14 142 1.6 4.8 0.00 0.00 0.00 86 1011.0
20260506110605 14 233 1.6 11.3 0.00 0.00 0.00 86 1010.9
20260506105605 14 224 3.2 9.7 0.00 0.00 0.00 86 1010.6
20260506104605 14 236 1.6 8.0 0.00 0.00 0.00 87 1010.7
20260506104105 14 226 3.2 9.7 0.00 0.00 0.00 87 1010.5
20260506103605 14 223 3.2 9.7 0.00 0.00 0.00 87 1010.6
20260506103105 14 190 3.2 8.0 0.00 0.00 0.00 87 1010.6
20260506102605 14 169 4.8 9.7 0.00 0.00 0.00 87 1010.5
20260506102106 14 201 1.6 8.0 0.00 0.00 0.00 87 1010.5
20260506101605 14 176 3.2 8.0 0.00 0.00 0.00 87 1010.5
20260506101106 14 214 3.2 8.0 0.00 0.00 0.00 87 1010.6
20260506100605 14 189 1.6 4.8 0.00 0.00 0.00 87 1010.7
20260506100105 14 205 1.6 4.8 0.00 0.00 0.00 86 1010.7
20260506095105 14 204 3.2 9.7 0.00 0.00 0.00 86 1010.6
20260506094606 14 213 4.8 9.7 0.00 0.00 0.00 86 1010.6
20260506094106 14 232 4.8 9.7 0.00 0.00 0.00 86 1010.6
20260506093606 14 188 3.2 9.7 0.00 0.00 0.00 86 1010.7
20260506093106 14 260 1.6 9.7 0.00 0.00 0.00 86 1010.6
20260506092606 14 201 1.6 4.8 0.00 0.00 0.00 85 1010.6
20260506091105 14 192 3.2 9.7 0.00 0.00 0.00 85 1010.6
20260506090605 14 201 3.2 9.7 0.00 0.00 0.00 84 1010.6
20260506090105 14 214 3.2 9.7 0.00 0.00 0.00 84 1010.7
20260506085604 14 255 3.2 12.9 0.00 0.00 0.00 84 1010.6
20260506085105 14 197 4.8 11.3 0.00 0.00 0.00 84 1010.5
20260506084606 14 188 4.8 12.9 0.00 0.00 0.00 84 1010.5
20260506084105 14 185 3.2 11.3 0.00 0.00 0.00 83 1010.6
20260506083605 14 191 4.8 12.9 0.00 0.00 0.00 83 1010.7
20260506083105 15 202 1.6 9.7 0.00 0.00 0.00 83 1010.7
20260506082605 15 209 3.2 11.3 0.00 0.00 0.00 83 1010.7
20260506081605 15 193 1.6 9.7 0.00 0.00 0.00 82 1010.7
20260506081106 15 211 3.2 11.3 0.00 0.00 0.00 82 1010.7
20260506080104 15 214 1.6 9.7 0.00 0.00 0.00 81 1010.6
20260506073104 15 198 4.8 12.9 0.00 0.00 0.00 80 1010.7
20260506072606 15 240 4.8 11.3 0.00 0.00 0.00 80 1010.7
20260506072105 15 235 6.4 12.9 0.00 0.00 0.00 79 1010.6
20260506071605 15 207 6.4 11.3 0.00 0.00 0.00 79 1010.6
20260506071105 15 208 6.4 12.9 0.00 0.00 0.00 79 1010.6
20260506070604 15 206 1.6 12.9 0.00 0.00 0.00 79 1010.6
20260506070105 15 187 8.0 12.9 0.00 0.00 0.00 79 1010.5
20260506062105 16 247 4.8 19.3 0.00 0.00 0.00 76 1010.5
20260506061605 16 178 3.2 12.9 0.00 0.00 0.00 76 1010.5
20260506060606 16 191 4.8 19.3 0.00 0.00 0.00 75 1010.4
20260506051105 16 186 6.4 16.1 0.00 0.00 0.00 71 1010.6
20260506050605 16 212 3.2 14.5 0.00 0.00 0.00 71 1010.7
20260506045104 16 182 3.2 12.9 0.00 0.00 0.00 70 1010.8
20260506044605 16 198 4.8 16.1 0.00 0.00 0.00 70 1010.8
20260506044106 16 194 4.8 16.1 0.00 0.00 0.00 70 1010.8
20260506043604 16 201 4.8 9.7 0.00 0.00 0.00 70 1010.9
20260506043106 16 193 4.8 11.3 0.00 0.00 0.00 69 1010.9
20260506042605 16 227 4.8 12.9 0.00 0.00 0.00 69 1010.9
20260506042104 16 188 6.4 14.5 0.00 0.00 0.00 69 1010.9
20260506041606 16 202 4.8 14.5 0.00 0.00 0.00 69 1010.9
20260506041105 16 194 3.2 11.3 0.00 0.00 0.00 69 1010.8
20260506040605 16 186 3.2 14.5 0.00 0.00 0.00 69 1010.9
20260506040105 16 181 4.8 14.5 0.00 0.00 0.00 69 1011.0
20260506035104 16 195 8.0 14.5 0.00 0.00 0.00 68 1010.8
20260506034605 16 241 6.4 12.9 0.00 0.00 0.00 68 1010.9
20260506034105 16 235 4.8 12.9 0.00 0.00 0.00 68 1010.8
20260506033605 16 192 4.8 12.9 0.00 0.00 0.00 68 1010.8
20260506033104 16 191 4.8 14.5 0.00 0.00 0.00 68 1010.9
20260506032604 16 202 4.8 11.3 0.00 0.00 0.00 68 1010.8
20260506032104 16 183 3.2 9.7 0.00 0.00 0.00 69 1010.8
20260506031605 16 199 6.4 14.5 0.00 0.00 0.00 68 1010.7
20260506031104 16 187 6.4 19.3 0.00 0.00 0.00 68 1010.8
20260506030605 16 228 6.4 14.5 0.00 0.00 0.00 68 1010.7
20260506030104 16 234 3.2 14.5 0.00 0.00 0.00 68 1010.8
20260506025605 16 172 4.8 14.5 0.00 0.00 0.00 68 1010.7
20260506025105 16 202 3.2 9.7 0.00 0.00 0.00 67 1010.8
20260506024605 16 217 6.4 14.5 0.00 0.00 0.00 67 1010.8
20260506024104 16 262 3.2 11.3 0.00 0.00 0.00 67 1010.9
20260506023604 17 217 1.6 11.3 0.00 0.00 0.00 67 1010.8
20260506023105 17 184 4.8 11.3 0.00 0.00 0.00 67 1010.8
20260506022604 17 208 4.8 12.9 0.00 0.00 0.00 66 1010.8
20260506022104 17 197 4.8 14.5 0.00 0.00 0.00 66 1010.8
20260506021605 17 222 4.8 11.3 0.00 0.00 0.00 66 1010.9
20260506021105 17 213 3.2 16.1 0.00 0.00 0.00 65 1010.9
20260506020604 17 223 8.0 19.3 0.00 0.00 0.00 65 1010.8
20260506020104 17 234 4.8 16.1 0.00 0.00 0.00 64 1010.8
20260506015604 17 234 4.8 12.9 0.00 0.00 0.00 64 1010.7
20260506015105 17 230 9.7 19.3 0.00 0.00 0.00 64 1010.6
20260506014604 17 238 3.2 12.9 0.00 0.00 0.00 64 1010.5
20260506014105 17 190 9.7 19.3 0.00 0.00 0.00 64 1010.5
20260506013605 17 245 6.4 14.5 0.00 0.00 0.00 63 1010.4
20260506013104 18 34 4.8 11.3 0.00 0.00 0.00 63 1010.2
20260506012604 18 188 4.8 14.5 0.00 0.00 0.00 63 1010.2
20260506012104 18 202 4.8 11.3 0.00 0.00 0.00 63 1010.2
20260506011604 18 219 8.0 16.1 0.00 0.00 0.00 62 1010.2
20260506011105 18 200 4.8 14.5 0.00 0.00 0.00 62 1010.2
20260506010604 18 202 3.2 9.7 0.00 0.00 0.00 62 1010.1
20260506010104 18 208 3.2 11.3 0.00 0.00 0.00 62 1010.1
20260506005104 18 222 8.0 14.5 0.00 0.00 0.00 61 1010.1
20260506004605 18 181 3.2 12.9 0.00 0.00 0.00 61 1010.1
20260506003605 19 190 4.8 14.5 0.00 0.00 0.00 60 1010.0
20260506003104 19 230 3.2 14.5 0.00 0.00 0.00 59 1010.0
20260506002604 19 224 4.8 14.5 0.00 0.00 0.00 59 1009.9
20260506002105 20 216 6.4 12.9 0.00 0.00 0.00 58 1009.8
20260506001605 20 239 4.8 14.5 0.00 0.00 0.00 58 1009.7
20260506001105 20 181 4.8 11.3 0.00 0.00 0.00 57 1009.6
20260506000604 20 182 3.2 11.3 0.00 0.00 0.00 56 1009.6
20260505235104 20 239 4.8 16.1 0.00 0.00 0.00 54 1009.2
20260505234605 21 191 4.8 16.1 0.00 0.00 0.00 54 1009.1
20260505234104 21 209 4.8 11.3 0.00 0.00 0.00 53 1009.0
20260505233606 21 196 3.2 16.1 0.00 0.00 0.00 53 1009.0
20260505233104 21 217 9.7 16.1 0.00 0.00 0.00 52 1008.9
20260505232604 21 174 1.6 9.7 0.00 0.00 0.00 53 1008.9
20260505232104 22 205 4.8 12.9 0.00 0.00 0.00 51 1008.8
20260505231605 22 197 6.4 24.1 0.00 0.00 0.00 50 1008.7
20260505231104 22 226 4.8 14.5 0.00 0.00 0.00 51 1008.6
20260505230604 22 217 4.8 11.3 0.00 0.00 0.00 50 1008.4
20260505230104 22 174 6.4 19.3 0.00 0.00 0.00 49 1008.5
20260505225104 23 190 4.8 11.3 0.00 0.00 0.00 49 1008.3
20260505224604 23 199 3.2 9.7 0.00 0.00 0.00 48 1008.2
20260505224104 23 198 4.8 14.5 0.00 0.00 0.00 48 1008.1
20260505223105 23 209 8.0 20.9 0.00 0.00 0.00 47 1008.0
20260505222104 24 221 3.2 14.5 0.00 0.00 0.00 46 1007.7
20260505221604 24 197 4.8 12.9 0.00 0.00 0.00 47 1007.7
20260505221105 24 177 3.2 11.3 0.00 0.00 0.00 47 1007.5
20260505220604 24 231 9.7 19.3 0.00 0.00 0.00 46 1007.5
20260505215104 25 198 8.0 20.9 0.00 0.00 0.00 46 1007.7
20260505214605 25 240 4.8 14.5 0.00 0.00 0.00 44 1007.7
20260505212604 25 211 8.0 25.7 0.00 0.00 0.00 43 1007.5